Home   Weather   Ojinaga   Past weeks

Flag for Mexico Past Weather in Ojinaga, Chihuahua, Mexico — Yesterday and Last 2 Weeks

Now
84 °F

Sunny.


Feels Like: 81 °F
Forecast: 56 / 96 °F
Wind: 23 mph from West

Location: Marfa Municipal Airport

Current Time: Apr 24, 2017 at 3:19:08 pm

Latest Report: Apr 24, 2017 at 1:56 pm


Visibility: 10 mi

Pressure: 29.76 "Hg (27.22 "Hg at 788m altitude)

Humidity: 16%

Dew Point: 33 °F

Location of OjinagaLocation

Past Weather in Ojinaga — Graph

°F

Ojinaga Temperature Yesterday

Maximum temperature yesterday: 74 °F (at 4:56 pm)
Minimum temperature yesterday: 38 °F (at 6:56 am)
Average temperature yesterday: 57 °F

High & Low Weather Summary for the Past Weeks

 TemperatureHumidityPressure
High88 °F (Apr 21, 3:56 pm)100% (Apr 14, 2:56 am)30.24 "Hg (Apr 14, 2:56 am)
Low38 °F (Apr 23, 6:56 am)4% (Apr 21, 5:56 pm)29.76 "Hg (Apr 21, 3:56 pm)
Average64 °F51%29.97 "Hg
* Reported Apr 9 1:56 pm — Apr 24 1:56 pm, Ojinaga, Weather by CustomWeather, © 2017

Note: Actual official high and low records may vary slightly from our data, if they occured in-between our weather recording intervals... More about our weather records

Advertising

Ojinaga Weather History for the Previous 24 Hours

Scroll right to see more
 ConditionsComfort  
Time TempWeatherWind HumidityBarometerVisibility
1:56 pm
Mon, Apr 24
84 °FSunny.23 mph16%29.76 "Hg10 mi
12:56 pm84 °FSunny.18 mph15%29.80 "Hg10 mi
11:56 am82 °FSunny.20 mph17%29.82 "Hg10 mi
10:56 am77 °FSunny.16 mph24%29.85 "Hg10 mi
9:56 am72 °FSunny.7 mph33%29.88 "Hg10 mi
8:56 am63 °FMild.No wind40%29.89 "Hg10 mi
8:15 am61 °FPassing clouds.No wind42%30.02 "Hg10 mi
7:56 am59 °FSunny.No wind44%29.89 "Hg10 mi
6:56 am49 °FSunny.6 mph59%29.88 "Hg10 mi
5:56 am49 °FClear.5 mph57%29.87 "Hg10 mi
4:56 am52 °FClear.No wind50%29.86 "Hg10 mi
3:56 am52 °FClear.6 mph50%29.87 "Hg10 mi
2:56 am48 °FClear.3 mph54%29.88 "Hg10 mi
1:56 am48 °FClear.7 mph56%29.91 "Hg10 mi
12:56 am47 °FClear.7 mph54%29.95 "Hg10 mi
11:56 pm
Sun, Apr 23
48 °FClear.8 mph52%29.97 "Hg10 mi
10:56 pm55 °FClear.3 mph42%29.99 "Hg10 mi
9:56 pm56 °FClear.3 mph42%29.99 "Hg10 mi
8:56 pm59 °FClear.7 mph36%29.96 "Hg10 mi
7:56 pm65 °FClear.12 mph31%29.94 "Hg10 mi
6:56 pm70 °FSunny.6 mph26%29.96 "Hg10 mi
5:56 pm73 °FSunny.9 mph22%29.96 "Hg10 mi
4:56 pm74 °FSunny.9 mph21%N/A10 mi
3:56 pm73 °FSunny.6 mph20%29.99 "Hg10 mi
Weather by CustomWeather, © 2017

See weather overviewHow to use our weather pages